Location: Peebles
(55.6412°N, 3.1714°W)
Time: 23:44:56
(UTC+01:00)

USA 238 DEB - Pass Details

Date: 21 January 2022
Orbit: 969 x 1243 km, 63.4° (Epoch: 04 May)

Event Time Altitude Azimuth Distance (km) Brightness Sun altitude
Rises 23:02:24 0° 303° (WNW) 3,864 7.2 -50.9°
Reaches altitude 10° 23:05:01 10° 306° (NW) 2,945 6.4 -51.1°
Enters shadow 23:05:33 13° 307° (NW) 2,764 6.2 -51.2°
